Theta_e
330 331 332 333 333 333 334 334 335 336 337 338 340 340 339 339 340 341 341 341 339 338 337 337 339 340 340 340 340 342 343 343 344 346 348 349 349 349 349 349 349 350 350 349 349 349 348 348 348 348 347 347 347 346 345 346 348 349 349 350 349 349 349 347 347 348 349 349 348 347 346 346 345 345
328 328 329 331 332 333 334 334 334 335 336 337 338 338 338 338 339 340 340 340 339 338 338 337 338 338 339 339 339 340 341 342 343 344 345 346 347 348 349 349 349 349 350 349 349 349 349 349 348 348 348 347 346 346 346 347 348 350 351 351 350 349 348 346 346 348 349 349 348 347 347 347 347 346
329 328 328 328 330 332 333 334 335 335 336 337 338 338 338 338 338 339 339 340 339 338 338 338 338 338 338 338 339 338 339 340 342 343 343 342 343 344 347 348 348 347 347 348 348 349 349 349 349 349 348 347 347 347 348 349 350 351 351 351 350 349 348 347 346 347 348 348 348 348 347 347 347 346
333 332 330 328 328 329 331 333 335 335 335 336 336 337 337 337 338 338 338 339 339 338 338 338 337 337 338 338 338 338 337 338 339 342 343 343 341 341 342 343 343 345 345 346 347 348 349 349 350 349 349 349 348 348 349 350 351 352 351 350 349 348 348 349 349 349 348 348 348 348 348 347 347 346
333 333 333 331 329 329 329 331 333 333 333 333 333 334 335 335 336 337 337 337 338 338 338 338 337 337 338 339 338 338 337 337 338 340 342 343 342 342 341 341 342 344 345 346 346 348 349 349 350 350 350 349 349 349 349 349 351 351 350 349 349 347 347 350 350 349 348 348 348 348 348 348 347 347
331 331 332 332 332 331 330 330 330 331 330 330 329 329 329 330 332 333 333 334 335 336 337 337 337 337 338 339 339 339 339 339 338 339 340 341 341 341 341 341 342 343 345 345 346 347 348 349 349 349 349 350 350 350 349 350 350 350 349 350 350 348 349 351 351 349 349 348 348 348 348 348 348 348
329 328 330 332 333 332 332 331 331 331 330 330 328 327 326 325 325 327 327 328 331 334 335 336 336 336 337 337 338 338 339 339 339 339 340 340 340 341 341 341 342 342 343 344 344 345 345 346 348 348 348 349 349 350 350 349 350 350 349 349 349 350 350 351 350 349 349 348 348 348 347 348 348 348
329 329 330 331 332 332 332 332 331 332 331 330 328 327 326 324 322 322 321 324 328 332 333 334 335 335 336 335 335 336 337 338 339 340 340 340 340 340 341 341 341 341 341 342 341 342 342 343 345 346 347 348 348 349 349 349 349 349 350 349 349 349 350 349 349 348 348 348 348 348 347 347 348 348
331 331 331 331 331 331 331 331 331 332 331 329 328 328 327 325 323 322 321 322 327 331 332 333 333 334 335 335 334 333 334 335 336 337 338 339 339 339 340 340 341 341 341 340 341 340 340 341 343 344 345 346 347 347 348 348 348 348 349 349 348 349 348 348 348 348 347 347 347 347 347 347 348 348
332 332 332 331 330 329 329 329 330 330 329 328 328 328 327 326 325 324 323 322 323 326 330 332 332 332 333 334 334 333 332 333 333 334 335 336 337 337 338 338 338 339 339 339 339 339 339 339 341 342 343 343 344 345 346 346 347 346 347 347 348 348 348 348 348 348 347 347 347 347 346 346 347 348
331 331 330 330 329 329 328 327 328 328 328 328 328 328 327 327 326 325 324 323 321 322 325 328 330 332 332 333 334 334 333 334 334 334 334 334 334 335 335 336 336 336 336 337 337 337 338 338 340 341 341 342 341 342 343 343 343 343 344 344 346 346 347 347 347 347 347 347 346 346 345 346 346 347
329 329 329 330 330 329 328 327 328 328 328 328 328 328 328 327 326 325 324 323 322 322 324 326 327 330 332 333 333 334 335 335 334 334 334 334 333 333 334 334 334 334 335 335 335 336 337 338 338 339 339 340 340 340 341 341 342 343 343 343 344 345 345 345 345 345 345 345 345 345 346 345 346 347
328 327 327 327 327 327 327 328 328 328 328 327 328 328 327 326 326 326 325 325 324 323 325 326 325 327 330 331 332 333 334 334 334 333 333 332 332 332 332 332 332 333 333 333 334 335 335 336 337 338 338 338 339 340 341 341 341 343 344 343 344 344 345 345 345 344 344 344 345 346 346 346 346 346
326 326 326 326 326 326 326 326 327 327 327 326 326 325 324 325 326 326 326 326 325 324 326 327 326 326 327 328 330 332 333 333 333 333 332 332 332 332 332 332 331 331 332 332 333 332 333 334 334 335 336 336 337 339 341 342 342 343 344 344 344 343 343 344 344 345 344 344 345 345 346 346 347 347
325 325 325 326 326 327 327 327 327 326 326 326 326 326 325 326 326 327 327 326 326 325 326 326 326 327 327 326 328 330 331 331 331 332 332 332 332 332 333 333 332 331 332 332 333 332 331 332 333 333 333 334 334 336 338 341 342 343 343 343 343 343 343 343 344 344 344 344 344 345 345 346 347 347
323 323 323 325 326 327 328 328 328 328 328 328 328 328 328 327 327 327 327 327 326 327 326 325 326 326 326 327 327 328 329 330 330 330 330 330 330 330 331 333 332 331 331 333 333 332 331 332 332 332 332 333 333 334 335 336 338 339 339 340 340 341 341 342 342 343 343 343 343 343 344 345 346 347
320 320 321 323 324 325 326 326 326 327 327 328 328 328 328 328 327 328 327 327 327 326 326 326 326 326 327 327 327 328 328 330 330 331 330 329 330 330 330 331 331 331 330 331 332 332 330 330 331 331 331 331 332 332 333 333 334 335 336 336 337 338 338 339 340 340 341 341 341 342 341 342 343 345
320 320 321 323 324 324 323 324 324 325 325 325 326 326 326 327 327 327 327 327 327 327 327 327 327 328 328 328 328 328 329 329 330 330 330 330 330 330 330 329 330 329 328 329 331 331 329 328 329 330 330 330 330 331 331 332 332 332 332 332 333 333 334 334 336 337 338 338 339 340 340 341 341 342
320 320 321 322 322 322 322 322 322 322 322 323 323 323 324 324 325 326 326 327 327 327 328 328 328 328 328 328 328 329 329 329 330 330 330 331 331 331 330 330 330 329 328 328 331 332 329 328 329 330 329 329 330 331 331 331 331 332 332 331 331 331 331 332 333 334 335 336 337 338 340 340 341 342
320 321 321 321 321 321 322 321 322 322 322 322 322 322 322 323 323 324 325 325 326 326 327 328 328 328 328 328 328 328 329 329 329 330 330 330 331 331 331 331 330 330 329 329 330 331 330 329 329 329 328 328 329 330 331 332 332 333 333 333 332 332 332 333 333 334 334 335 336 337 338 339 340 341
321 320 320 319 319 318 318 318 319 320 320 320 320 321 321 321 322 322 323 323 323 324 325 326 327 327 327 327 327 327 327 327 328 328 328 329 329 329 329 329 329 330 330 330 330 331 331 330 329 328 327 327 328 328 329 331 332 332 333 333 333 333 332 333 334 334 335 335 335 336 337 338 339 339
316 315 314 314 315 315 315 315 316 316 317 318 318 319 320 321 320 321 321 322 322 323 323 323 324 325 325 325 325 325 326 326 326 326 327 327 327 327 327 327 327 328 328 329 329 331 331 330 330 329 328 327 327 327 327 328 330 331 332 332 332 333 333 333 334 335 336 336 336 337 338 338 338 338
313 313 313 314 314 315 315 316 316 317 318 317 318 319 319 320 320 321 321 322 322 322 323 323 323 324 324 324 324 324 324 325 325 325 325 325 325 325 325 325 325 325 326 327 328 329 330 330 330 330 329 329 328 326 326 326 327 329 331 332 331 332 333 334 335 336 336 336 336 336 336 338 338 338
315 315 315 315 315 315 316 317 319 320 321 320 320 319 320 320 321 322 322 322 322 322 322 323 324 324 324 323 323 324 323 323 323 323 323 323 323 323 323 323 323 324 325 326 326 327 328 329 329 329 329 329 328 328 326 325 325 326 329 332 332 332 332 333 334 334 334 334 335 335 336 336 336 336
317 316 316 315 315 316 318 319 321 322 322 322 321 320 321 321 321 321 321 322 322 322 322 323 323 323 323 323 323 323 323 323 323 323 323 323 323 323 323 322 322 322 323 324 325 325 326 327 327 328 328 327 327 327 327 326 325 325 326 328 331 332 332 332 332 333 332 334 337 338 339 340 339 338
317 316 315 315 316 318 320 321 321 322 321 321 321 321 321 321 321 320 320 321 321 322 322 322 322 322 323 322 322 322 322 323 323 323 323 322 322 322 323 323 322 323 323 323 323 323 323 324 324 325 326 325 324 324 324 325 326 325 324 324 327 330 333 333 332 333 333 334 337 339 340 341 341 340
315 315 316 317 319 321 321 321 320 320 320 320 320 320 320 320 320 319 319 320 320 321 321 321 321 321 322 322 322 321 322 323 322 322 322 321 321 321 321 322 322 322 323 323 322 322 322 322 322 323 324 323 322 322 322 323 324 325 324 324 324 327 332 333 333 333 333 334 336 338 339 340 340 339
316 317 319 320 321 321 320 320 319 319 319 319 319 319 319 319 320 319 319 319 319 319 319 319 320 321 321 321 322 322 322 322 322 322 322 322 321 321 321 321 321 321 322 322 322 322 321 321 321 322 322 322 323 322 322 322 322 323 324 325 324 325 329 333 334 334 334 334 334 335 336 337 338 337
318 320 321 321 321 320 319 319 319 318 318 319 319 319 319 319 320 320 320 320 319 319 319 319 319 320 321 321 322 322 322 322 322 322 322 322 322 321 321 322 322 322 322 322 322 321 321 321 321 321 321 322 323 324 325 324 322 321 323 325 325 324 326 331 334 335 335 336 336 335 334 334 335 335
322 322 322 321 321 320 319 319 318 318 318 319 319 319 319 319 320 320 321 321 321 320 320 320 320 321 322 322 322 322 323 323 323 323 323 323 322 322 321 322 322 323 323 323 323 323 322 322 321 321 322 323 324 325 326 326 326 323 322 325 327 325 324 328 333 335 336 337 337 336 336 335 335 335
323 323 322 321 321 320 320 319 318 317 318 319 319 319 319 319 320 321 322 322 321 321 321 322 322 323 323 323 323 324 324 325 325 324 324 323 322 321 322 322 323 323 323 324 324 323 323 323 323 322 322 323 325 325 326 326 326 324 322 325 328 328 326 326 331 336 336 335 336 336 336 336 336 336
323 323 323 322 322 322 321 320 319 318 318 319 319 319 319 319 320 321 322 322 322 323 323 323 323 324 324 324 324 325 325 325 325 325 324 324 323 323 323 324 324 324 325 324 324 324 324 324 324 324 323 323 323 325 325 326 326 324 324 326 328 329 328 326 329 333 333 332 333 335 335 335 335 335
324 323 323 322 322 321 320 319 318 318 318 319 318 319 319 320 321 322 322 322 322 323 323 323 324 324 324 324 324 324 324 324 325 325 325 326 325 325 325 326 326 326 326 326 326 325 325 325 325 325 324 324 322 323 323 325 326 326 326 327 328 330 330 327 327 331 331 330 332 333 332 332 333 334
324 324 323 322 322 321 320 319 319 318 319 319 319 319 320 320 321 321 321 321 322 322 322 322 323 323 323 323 323 323 323 323 324 324 325 325 326 326 326 326 327 327 328 328 328 327 326 325 325 325 325 325 325 324 324 324 324 324 325 326 327 329 330 328 327 329 331 330 330 331 330 330 332 333
324 325 324 323 322 322 321 320 320 319 319 319 319 320 320 320 320 320 320 320 320 321 321 321 322 322 322 323 323 323 324 324 325 325 325 325 326 326 326 327 327 328 328 328 328 328 327 326 325 325 326 327 327 327 327 326 325 324 325 327 327 328 329 328 327 328 330 330 330 332 333 333 334 335
325 325 325 324 324 323 322 322 322 321 320 320 320 320 320 320 320 320 319 319 319 320 320 321 321 322 322 323 324 324 325 325 325 325 325 326 326 326 326 327 327 328 328 328 328 328 328 326 325 326 327 328 328 329 329 328 327 327 327 328 328 328 329 329 327 327 330 329 329 332 335 336 337 337
326 325 325 325 324 324 324 324 324 323 323 323 322 322 322 322 322 322 321 321 321 321 321 322 323 324 324 325 326 326 326 326 326 326 326 326 327 326 326 326 326 327 327 328 328 328 328 328 326 326 327 328 328 328 329 328 328 329 328 328 329 329 330 330 329 329 330 330 331 333 335 336 337 338
327 326 325 326 326 325 326 325 325 325 325 325 325 324 324 324 324 324 324 323 323 323 324 324 325 325 326 325 325 326 326 327 327 327 327 327 327 327 327 327 327 327 327 327 327 327 328 329 328 326 326 328 328 328 329 329 329 329 329 328 328 329 330 330 330 331 332 332 333 334 334 335 336 337
326 326 326 326 325 325 326 326 326 325 324 324 325 325 324 323 324 324 325 325 325 325 325 325 325 325 325 325 324 325 326 326 327 328 328 329 328 328 327 328 328 328 328 327 327 327 328 329 329 328 327 327 328 328 329 330 330 330 329 329 330 330 331 331 331 332 333 333 333 333 333 333 334 335
327 327 327 327 326 325 326 326 326 325 324 324 324 325 324 323 323 323 324 324 324 324 324 324 324 324 325 325 324 324 325 326 326 327 327 328 329 329 329 328 328 328 329 329 328 328 328 328 328 329 328 328 329 329 330 330 330 330 331 331 331 332 332 332 331 332 332 332 333 334 334 334 334 335
325 326 327 327 327 326 326 326 326 326 326 326 326 326 326 326 326 325 325 324 324 324 324 325 324 324 324 325 324 324 324 325 325 326 326 327 328 329 329 329 328 328 329 329 329 329 329 328 328 328 328 329 329 329 330 330 330 331 332 331 332 332 333 332 332 332 332 332 332 332 334 335 335 335
319 321 323 325 326 326 327 327 326 326 326 326 326 327 328 329 329 328 328 327 326 325 325 325 326 326 326 326 326 326 325 325 325 325 325 325 327 328 328 328 328 327 327 328 329 329 329 329 329 329 328 329 329 330 330 330 330 330 331 331 332 332 332 331 331 331 330 330 331 331 333 334 335 335
314 316 318 320 322 324 325 325 325 325 325 325 326 327 328 329 329 329 328 328 327 326 326 326 326 326 326 326 326 326 326 325 325 324 324 324 326 326 327 328 329 328 327 327 328 329 330 329 329 328 328 329 329 330 330 330 330 330 330 330 330 331 331 330 329 328 329 329 330 331 333 334 334 333
312 314 317 318 319 320 323 324 325 325 325 326 327 328 328 328 328 328 328 327 326 325 325 324 324 325 324 325 325 325 325 325 325 324 324 324 325 325 326 327 328 328 327 326 326 328 329 329 329 329 329 329 329 330 330 329 329 329 329 328 329 331 331 329 328 328 329 330 331 331 333 333 332 331
313 316 319 319 319 320 323 325 325 326 326 326 327 327 328 328 328 327 327 326 325 324 324 323 323 323 323 323 323 322 322 322 322 323 323 324 325 325 325 325 326 327 327 325 325 327 329 329 329 328 329 329 329 329 329 329 329 328 328 329 329 330 329 328 327 328 330 330 330 331 332 332 332 332
Wind_Speed
13 13 14 14 14 15 15 15 16 16 17 17 17 17 17 17 18 18 20 23 23 21 20 19 16 14 13 14 13 12 11 11 12 14 15 16 17 17 18 18 19 19 20 20 22 23 24 25 25 25 25 25 24 24 24 25 24 24 23 23 22 21 22 22 22 22 22 23 22 22 22 22 22 23
11 12 13 14 14 14 15 15 15 16 17 17 17 17 18 19 19 19 20 23 25 25 22 21 20 19 19 18 17 16 14 14 15 16 16 17 17 16 17 17 17 18 18 19 20 21 23 24 25 25 25 25 24 24 24 24 24 23 22 21 21 20 20 21 21 21 22 22 21 21 21 20 21 23
12 12 12 13 14 15 15 15 15 15 16 17 17 17 18 18 18 19 20 22 25 25 23 22 22 21 22 22 20 19 17 16 17 18 18 18 17 17 17 17 17 18 18 19 19 20 21 23 24 25 25 25 25 24 24 24 24 23 22 21 21 20 19 20 21 21 22 21 20 19 20 20 20 22
14 15 14 13 13 13 14 15 15 16 16 17 18 18 19 19 18 19 20 22 25 25 23 24 25 23 23 23 23 22 21 18 18 19 19 19 18 18 19 19 18 18 18 19 19 19 20 21 22 24 25 25 25 25 24 24 24 24 23 22 21 20 19 18 19 20 20 19 18 18 18 19 19 20
15 15 15 15 13 12 12 12 12 13 14 16 17 18 19 21 21 21 22 24 26 26 24 25 26 25 23 23 22 22 22 21 20 20 20 19 19 19 19 19 19 18 17 18 18 19 19 20 20 22 23 24 25 24 25 25 25 25 25 24 22 21 20 18 18 19 19 18 17 17 17 18 18 18
16 15 15 15 14 13 12 12 12 13 14 15 16 17 18 20 21 22 24 25 26 28 27 25 26 26 24 23 22 21 20 20 20 20 20 20 20 19 20 20 20 19 18 18 18 18 19 20 21 22 22 23 24 24 25 25 25 25 26 24 23 22 21 20 20 20 20 19 18 17 17 17 18 18
16 15 14 15 14 14 14 14 14 15 16 17 19 19 19 19 19 21 22 24 25 28 29 27 27 27 25 25 24 23 22 21 19 19 18 18 18 18 19 21 21 21 20 19 19 19 19 20 21 21 22 23 23 23 24 25 25 25 26 25 24 22 22 22 22 22 21 21 20 19 19 18 18 18
16 15 14 14 14 15 16 17 17 17 18 19 21 22 22 21 20 19 21 22 23 25 27 28 28 27 26 26 26 26 26 25 23 22 20 19 18 17 18 19 20 20 20 20 20 20 20 21 21 21 21 22 23 23 24 25 25 25 25 25 24 23 24 24 24 24 23 23 22 21 20 20 20 19
16 16 15 14 15 16 18 19 18 19 20 21 23 24 24 22 20 19 20 21 22 23 25 26 27 27 26 26 26 26 27 28 28 27 26 24 23 22 21 20 20 20 20 20 20 20 20 21 22 22 22 21 22 22 23 23 24 24 24 25 25 25 26 26 26 25 25 24 24 23 22 22 21 20
16 16 17 17 18 18 19 20 19 20 22 23 24 24 24 23 21 21 21 21 22 23 24 25 26 26 26 25 25 25 25 27 30 30 30 28 27 27 26 25 24 23 23 24 23 23 23 22 21 21 21 22 22 22 22 22 22 23 24 24 25 26 26 26 26 26 26 26 25 24 24 23 22 21
18 18 18 19 19 20 21 21 22 22 23 23 24 24 23 22 23 23 24 23 22 22 23 24 25 25 24 24 24 23 23 25 27 28 30 30 29 28 28 28 28 26 26 26 26 26 25 23 22 21 21 21 21 22 21 21 20 21 22 23 24 24 25 26 26 27 27 27 27 26 25 24 23 22
19 19 19 20 20 21 21 22 23 23 23 24 24 23 22 23 24 24 25 25 24 22 23 24 25 24 24 23 22 22 21 23 24 24 26 28 28 28 28 28 28 28 28 27 26 26 25 24 23 23 22 21 21 21 21 20 20 20 20 21 21 22 23 24 25 26 27 27 27 26 26 25 24 23
21 21 21 22 22 22 22 22 23 24 25 26 27 25 25 25 25 24 25 25 24 23 22 23 24 24 24 24 23 21 21 21 22 22 23 25 26 27 28 28 27 27 28 28 28 26 25 25 25 24 23 22 21 20 20 19 19 19 19 20 20 20 21 22 23 25 25 26 26 26 26 26 25 25
21 21 20 20 20 20 21 22 23 25 26 27 27 27 26 26 25 25 25 25 24 24 23 23 23 24 24 24 23 22 21 20 20 20 21 23 24 24 26 27 26 26 27 28 28 27 26 26 26 26 24 23 21 19 19 18 18 19 19 19 20 20 20 21 22 23 24 24 25 26 26 26 26 26
19 19 19 19 19 19 20 21 22 23 24 25 26 25 24 24 25 25 25 25 25 25 25 25 25 25 25 25 23 22 22 21 21 21 20 21 21 22 23 24 23 22 23 24 26 27 26 26 26 27 26 24 23 21 19 18 18 18 18 18 19 19 20 20 20 21 22 23 24 25 26 26 26 26
19 19 19 19 20 19 19 20 21 21 22 22 23 23 23 24 23 23 24 25 25 25 26 26 26 26 26 25 24 23 23 23 23 22 22 21 21 21 22 22 21 19 20 21 23 25 26 26 27 27 26 25 24 23 22 21 21 21 20 20 19 19 19 19 20 20 20 21 22 23 24 25 26 26
20 20 20 20 20 20 20 21 21 21 22 22 22 23 23 24 23 23 23 23 24 25 26 26 26 25 25 24 23 21 21 22 21 21 21 21 21 21 21 23 22 19 19 21 23 25 25 24 26 27 27 26 26 25 24 24 24 24 23 22 22 21 20 20 20 20 20 20 20 21 22 23 24 25
19 19 19 20 21 21 22 22 23 23 24 25 25 25 25 25 25 24 23 22 22 23 25 26 25 24 24 23 23 21 21 21 22 22 23 22 23 23 23 24 24 22 21 22 24 27 26 24 25 27 26 25 26 26 26 26 25 25 25 25 25 24 23 23 22 22 22 21 21 20 20 21 22 23
17 17 18 20 21 22 22 23 23 25 26 27 27 27 27 27 27 27 25 24 23 23 23 24 25 25 24 24 24 23 22 22 23 23 24 24 25 26 26 26 26 24 23 22 24 28 27 25 26 27 24 24 26 26 25 25 25 25 25 25 25 25 24 24 24 24 23 23 22 21 21 20 21 22
18 18 19 20 21 22 23 24 24 25 26 27 28 29 29 29 29 29 27 26 26 25 24 25 25 25 25 25 25 25 25 25 24 25 26 26 26 27 28 28 27 25 24 23 24 27 27 25 26 27 25 24 26 26 25 24 24 23 24 24 24 24 24 23 24 24 24 24 23 22 21 21 20 21
20 21 21 22 24 25 25 25 25 25 26 28 29 29 30 30 30 30 29 28 29 28 27 27 27 27 28 28 28 27 27 27 27 27 29 29 29 29 30 30 28 27 26 24 23 26 26 24 24 26 26 26 27 26 25 23 22 22 22 23 23 23 23 22 22 22 23 23 23 23 23 22 22 22
22 23 24 25 26 27 28 28 28 28 28 30 31 31 31 31 32 31 30 30 31 31 31 31 30 31 31 31 31 31 30 29 29 29 31 31 31 32 33 33 32 31 30 27 23 25 27 25 24 25 26 27 28 27 25 23 22 21 21 20 20 21 21 21 21 21 21 22 21 22 22 22 23 23
25 26 28 29 30 32 33 33 32 31 30 31 32 32 32 33 34 32 31 31 31 32 33 33 33 33 33 33 34 33 33 32 31 32 33 32 33 34 35 34 33 33 33 28 24 26 29 26 24 24 24 26 28 27 26 24 22 20 19 18 18 18 19 20 20 20 20 20 20 20 20 21 22 22
28 30 32 34 35 36 37 38 36 34 32 31 32 32 32 33 34 33 32 32 31 30 32 33 32 31 32 34 35 35 35 35 35 35 35 34 35 35 36 37 36 37 37 32 26 27 28 26 25 24 23 24 26 26 25 25 23 21 19 18 17 18 18 20 20 20 19 19 18 18 18 19 21 22
31 33 36 38 39 40 40 39 38 36 34 32 32 32 32 31 32 32 32 33 31 31 32 33 32 30 29 29 32 34 36 36 35 35 34 33 34 35 35 37 37 38 39 35 30 29 29 28 28 26 24 25 26 26 26 26 25 23 21 20 19 18 18 20 20 20 20 19 18 18 17 17 17 19
34 37 39 41 42 41 40 39 38 37 36 34 32 32 31 30 29 29 30 31 32 32 31 31 32 31 28 27 30 33 33 31 30 29 28 27 28 29 31 33 35 37 38 35 32 30 31 31 30 28 27 28 28 27 28 28 27 24 23 22 21 20 18 19 19 19 19 20 20 19 19 18 17 17
37 40 42 43 42 41 39 38 37 36 34 32 31 30 28 26 25 25 27 29 29 29 27 27 28 29 27 27 30 31 29 26 24 23 22 22 23 24 26 29 31 34 35 34 32 32 33 34 33 31 31 31 31 31 31 30 28 26 24 22 21 20 19 18 18 18 18 19 21 21 21 20 19 18
40 42 43 43 42 40 37 35 33 30 28 26 26 24 23 22 22 22 23 25 25 24 22 22 24 25 23 24 26 26 24 22 20 20 21 21 21 21 22 24 25 28 30 30 31 32 33 35 35 34 34 34 34 33 32 31 30 28 26 24 22 21 20 18 18 18 17 18 20 22 22 21 20 19
42 42 42 41 39 36 33 31 29 27 25 22 20 18 17 17 18 19 20 21 22 21 20 19 20 20 19 18 20 20 19 19 19 20 22 23 22 20 20 21 21 23 24 25 27 29 31 33 35 35 35 35 35 33 31 31 31 30 29 27 24 23 21 18 18 18 18 18 19 20 21 21 21 21
42 41 39 37 34 32 30 28 26 25 22 20 18 16 15 16 17 18 18 18 19 20 19 18 18 17 16 15 16 16 16 18 20 20 21 22 22 21 20 21 22 23 23 23 24 26 28 31 33 34 34 35 34 33 31 30 30 31 30 29 27 25 22 19 17 17 17 17 17 18 19 20 21 21
39 37 35 32 30 28 26 24 22 20 18 17 17 16 15 15 16 15 15 15 16 17 17 16 16 15 15 15 15 15 16 18 19 18 18 20 20 20 20 22 23 24 23 22 22 23 25 27 29 31 33 33 33 33 32 31 31 32 31 29 28 27 24 20 17 15 14 14 15 16 17 19 19 20
33 31 30 29 27 24 23 22 19 16 15 15 15 15 14 13 13 13 13 13 13 14 13 13 13 13 14 15 16 17 18 19 18 17 17 19 20 20 20 22 24 24 23 21 21 21 22 24 24 26 29 32 33 33 31 30 31 31 30 29 28 27 26 23 20 17 15 15 15 15 16 17 18 18
28 27 27 27 26 24 22 21 19 17 16 15 15 14 13 12 12 12 12 13 12 13 13 14 15 16 16 18 18 19 22 22 20 17 16 17 18 19 19 21 23 24 23 22 21 19 19 20 21 22 23 26 30 31 30 29 30 29 29 28 28 26 25 23 22 21 18 16 15 16 16 17 17 17
25 24 24 25 24 23 22 21 19 18 17 16 15 14 13 12 13 15 15 16 16 16 17 18 19 19 21 22 23 24 26 26 23 20 18 18 18 19 19 19 21 21 21 19 19 18 18 18 19 20 21 21 23 25 26 27 28 28 28 29 28 26 25 23 22 22 21 18 16 16 17 16 16 16
23 23 23 23 22 22 21 20 19 19 18 16 16 16 15 14 16 17 19 20 20 21 22 22 22 23 24 25 26 27 26 25 23 21 20 20 19 19 19 20 21 21 20 18 16 16 17 17 17 18 19 19 18 20 22 25 26 26 27 27 27 26 25 23 22 23 22 19 16 16 16 16 16 15
22 22 24 24 23 22 22 20 19 18 18 18 17 17 17 17 17 17 19 20 21 23 24 25 25 26 26 26 26 25 23 22 22 21 20 20 19 19 20 21 21 21 21 19 16 15 16 17 18 19 18 18 18 19 20 23 24 25 26 26 26 25 24 22 22 23 21 19 17 16 16 15 14 12
22 22 24 26 24 23 23 22 20 19 18 19 19 18 19 19 18 18 18 19 20 21 22 23 24 24 24 23 24 24 22 20 20 20 20 19 19 18 19 20 20 21 21 20 19 18 17 17 18 20 18 17 18 19 20 20 22 23 24 24 24 24 23 21 21 20 19 18 17 16 15 14 14 13
23 24 25 26 25 24 23 23 22 21 20 20 21 21 20 20 20 20 19 19 19 20 20 21 22 23 22 22 23 24 23 21 19 18 18 18 17 16 16 17 18 19 20 21 21 21 19 18 18 20 20 20 20 21 21 20 20 21 21 21 21 21 21 20 19 17 16 15 15 15 15 15 15 13
23 24 24 25 25 25 24 23 22 22 21 22 22 22 22 22 22 21 20 20 20 21 22 22 22 22 23 24 24 23 22 20 19 18 17 16 16 15 15 15 16 16 17 19 21 21 21 20 19 20 21 23 23 22 20 19 19 18 18 18 18 18 19 20 19 16 15 15 15 15 15 15 15 13
24 24 23 23 24 24 23 23 23 22 23 23 24 24 26 26 26 25 23 22 22 22 24 24 23 22 24 26 25 22 20 19 19 19 18 17 16 15 15 15 15 15 16 18 19 20 21 21 21 20 21 22 22 21 20 18 17 16 16 16 16 16 17 17 16 14 13 13 12 11 10 11 12 13
25 25 24 24 24 24 23 23 23 23 25 26 26 27 27 27 27 27 27 26 26 26 25 26 26 25 26 26 25 22 21 19 19 19 20 19 17 17 17 15 15 16 16 17 18 20 21 21 20 19 19 20 20 20 19 18 17 15 15 15 14 13 12 11 10 11 12 11 10 10 10 10 9 9
26 25 24 23 24 24 24 24 25 27 28 29 29 29 30 30 28 27 26 26 26 26 25 27 28 29 29 28 27 24 22 21 20 21 21 20 18 18 18 17 17 16 16 17 18 19 21 20 17 15 15 18 18 17 17 17 17 15 14 14 13 11 9 8 8 10 11 11 12 12 11 10 9 8
29 28 26 23 22 22 24 25 26 28 29 29 28 29 29 29 28 28 27 27 26 24 23 22 24 26 27 27 26 23 21 22 24 25 23 22 20 18 18 18 18 17 16 16 16 16 17 18 15 13 14 16 16 14 14 15 16 15 15 15 13 10 8 7 7 7 8 9 10 10 9 9 8 7
31 30 28 26 23 22 23 24 25 26 27 28 28 28 27 27 28 29 29 27 26 25 24 23 23 23 23 23 24 24 24 25 27 27 25 24 21 19 18 18 18 17 16 16 16 15 15 14 13 12 13 14 14 14 14 14 14 15 15 13 11 9 7 6 5 5 6 7 7 9 10 9 7 6
31 29 28 26 23 22 23 25 24 25 27 28 29 28 28 29 30 30 29 28 27 26 26 27 26 26 26 26 27 28 27 27 26 25 23 21 19 18 18 17 16 16 15 15 16 15 14 14 13 12 13 14 13 13 13 13 14 16 14 11 10 10 8 6 5 6 7 7 5 6 9 9 8 7
Wind_Direction
298 296 294 293 292 291 289 288 286 284 283 284 285 286 287 288 291 293 292 291 290 288 288 287 279 273 280 284 280 277 274 270 270 271 269 267 264 261 261 261 259 260 261 261 261 261 261 260 259 257 256 255 256 256 254 253 254 257 258 259 260 262 263 264 264 264 264 268 271 271 268 266 265 265
308 302 296 292 290 289 289 287 284 282 281 280 280 280 280 280 282 284 287 288 287 287 286 285 282 280 281 283 281 278 275 273 273 272 271 270 267 262 261 262 262 262 262 262 263 263 263 263 261 258 256 255 255 255 254 253 253 254 256 258 260 263 264 264 265 266 265 267 271 272 270 268 266 265
323 318 311 302 293 288 286 284 281 279 278 278 278 277 276 277 278 280 282 283 283 284 286 284 284 284 283 282 281 279 277 276 273 271 271 271 269 265 261 261 262 263 263 264 264 264 265 265 264 262 259 256 255 254 254 253 253 254 256 259 263 265 266 266 267 267 266 267 268 268 268 267 264 263
321 319 318 314 305 295 288 285 282 280 277 277 277 278 277 276 277 279 280 280 280 281 282 283 283 284 283 282 280 279 278 278 275 271 270 271 271 268 264 261 260 261 261 261 261 261 262 263 263 262 261 259 257 255 254 254 255 257 259 261 262 262 263 265 267 267 266 266 265 264 264 266 265 264
313 312 311 312 311 306 297 290 285 283 282 281 279 279 279 277 276 279 280 281 281 280 277 277 277 278 279 279 278 278 279 279 277 273 269 270 271 270 268 265 263 261 261 261 261 260 260 260 261 261 260 259 258 257 256 256 256 258 260 261 261 260 260 262 262 262 262 263 264 264 264 265 266 266
309 306 302 301 302 304 302 296 291 292 295 296 293 288 285 281 277 276 278 281 282 281 278 275 274 273 273 273 272 274 278 279 277 274 271 270 270 270 270 270 269 267 265 265 265 264 262 261 261 261 260 259 258 257 257 256 255 256 256 256 256 257 258 258 258 259 260 262 262 264 265 266 266 266
307 306 301 297 297 299 301 299 299 301 303 306 306 303 299 293 284 276 274 275 277 280 280 279 277 275 274 273 271 271 273 274 274 273 271 271 272 271 269 270 271 272 272 271 270 269 268 266 265 264 263 262 260 259 258 257 255 253 253 253 253 255 256 256 257 257 259 260 260 262 265 266 266 267
302 303 301 298 296 296 297 298 299 299 300 305 309 310 308 304 294 281 272 269 271 274 276 277 277 278 278 277 275 273 272 271 271 271 271 272 273 273 271 270 272 273 274 276 277 277 275 272 269 267 267 266 264 261 260 260 259 257 256 257 257 257 257 256 257 258 258 259 259 261 263 265 267 268
299 299 298 295 294 294 294 294 294 294 298 303 306 308 310 307 298 286 276 270 268 270 272 273 274 274 275 276 276 276 275 274 272 272 271 272 274 275 274 273 273 274 276 278 279 282 282 279 274 269 268 267 266 264 263 263 263 262 260 260 260 259 258 258 258 258 259 259 260 260 262 264 266 268
298 298 298 296 294 294 294 292 292 293 296 298 300 303 306 305 299 292 286 280 275 271 271 272 272 271 270 271 272 273 272 272 272 273 272 272 273 275 275 275 274 274 275 276 278 280 281 281 277 272 270 269 268 267 266 265 264 262 261 261 260 260 260 260 260 260 260 260 260 261 261 262 263 265
300 299 298 295 293 295 295 293 292 291 290 291 293 297 301 301 298 296 294 291 286 279 274 272 273 272 271 270 269 269 267 266 267 271 273 273 271 271 272 273 273 273 272 273 274 276 277 277 275 273 271 271 271 270 268 266 265 264 263 261 260 261 261 260 260 260 260 260 260 260 260 259 260 261
301 299 295 292 291 293 293 291 288 286 285 287 290 293 297 297 295 295 294 293 289 285 280 277 276 275 274 273 272 271 268 266 266 267 271 273 271 268 267 267 268 269 270 270 270 271 272 272 271 271 270 271 272 270 268 266 265 264 264 262 262 261 261 261 261 260 260 259 259 259 257 256 256 257
301 299 296 292 291 291 289 287 284 283 285 288 291 294 295 293 292 292 293 293 291 288 284 282 281 279 277 275 275 275 272 271 271 270 270 272 272 270 267 264 262 264 265 266 265 265 266 266 266 267 268 268 269 269 267 265 262 260 260 260 260 260 260 260 260 260 260 259 258 256 255 253 253 254
305 304 302 298 295 291 287 284 282 282 283 284 287 290 290 290 290 291 291 290 290 287 283 281 282 282 280 278 278 278 277 276 276 274 272 273 273 273 271 268 264 262 262 263 263 261 260 261 261 261 263 264 265 266 266 265 262 259 257 257 259 260 261 261 260 260 260 259 258 256 254 252 252 252
310 309 308 305 301 297 293 289 286 285 285 285 286 287 286 286 287 289 289 288 288 286 283 283 284 283 282 281 280 279 279 279 277 273 270 270 272 273 274 273 269 264 263 264 264 260 257 258 259 258 258 260 261 260 260 261 260 259 257 257 258 259 260 260 260 259 259 259 258 256 255 253 252 251
311 309 307 305 304 303 301 298 295 292 290 289 288 288 287 286 286 286 286 286 285 284 284 284 283 282 282 281 279 277 276 276 274 270 266 266 268 269 271 272 271 268 266 268 269 266 260 259 260 259 257 257 258 258 257 256 257 257 257 257 257 258 259 260 260 260 260 259 259 257 256 254 252 250
310 308 305 303 302 302 302 301 300 298 297 295 293 291 289 288 287 285 284 283 281 280 279 279 280 280 281 279 278 277 276 275 273 271 269 270 269 268 268 270 271 270 267 269 274 274 269 266 267 265 261 258 259 259 258 257 257 257 257 258 258 258 259 260 260 261 261 261 261 260 258 255 253 251
311 308 305 302 302 301 302 303 303 303 302 299 296 295 293 291 290 287 283 280 278 276 276 276 277 278 280 279 279 278 275 273 273 274 277 276 274 271 269 269 269 269 267 267 271 273 272 271 273 271 267 264 264 262 261 261 260 259 258 258 258 259 260 260 261 261 262 262 262 261 261 259 256 253
312 310 307 305 304 305 305 307 307 305 304 301 298 296 294 293 291 288 285 282 278 275 274 274 274 275 277 278 278 277 275 274 274 276 277 277 277 277 275 272 270 268 267 266 267 270 271 271 273 274 272 270 268 265 263 263 263 261 260 258 257 257 259 260 260 260 260 260 260 259 259 259 257 255
312 310 308 307 308 308 309 310 308 306 305 302 299 297 296 294 292 288 285 283 281 277 274 273 273 273 274 274 274 274 274 274 273 274 273 272 273 275 276 273 270 268 267 263 264 268 270 269 271 274 274 272 271 269 266 265 265 263 262 260 257 256 257 259 259 259 259 259 258 257 256 256 256 254
314 313 311 311 311 311 311 310 308 307 305 303 300 298 297 295 293 290 288 287 285 281 276 272 270 270 270 270 270 270 269 269 269 270 269 269 271 273 274 274 271 268 266 263 261 265 268 268 269 271 272 273 273 272 269 267 267 267 265 262 259 257 256 258 259 259 258 257 256 255 254 253 253 252
317 316 316 315 314 313 313 312 309 306 304 302 300 299 298 295 293 291 291 290 287 284 279 275 270 268 267 267 267 267 267 266 265 265 267 268 269 271 272 274 274 272 268 263 261 264 267 268 269 272 274 273 272 272 271 269 268 269 268 263 259 256 255 255 256 256 255 253 253 253 252 251 251 251
317 318 318 317 315 313 312 312 310 307 304 300 298 297 297 295 294 294 295 293 289 286 282 279 275 271 269 267 267 266 266 266 265 265 266 267 267 268 269 270 273 273 270 264 260 262 265 266 267 270 273 275 273 272 271 270 266 264 263 260 255 252 250 250 250 250 250 249 250 250 249 250 251 251
313 315 315 315 314 312 311 311 310 308 305 300 296 293 291 292 295 299 300 297 293 288 284 281 278 274 272 271 270 269 267 267 267 267 268 268 268 269 269 268 268 268 268 267 263 262 264 265 266 265 267 272 275 272 271 271 267 260 258 258 255 249 245 245 244 244 246 245 245 245 246 247 248 250
309 310 311 312 312 311 310 311 310 309 306 300 294 290 287 288 294 299 299 297 295 291 288 285 281 277 273 271 272 273 272 271 271 272 274 274 272 270 268 267 266 265 266 266 264 263 264 266 267 266 264 267 271 271 271 271 269 264 260 259 259 254 248 246 244 242 241 239 237 238 239 241 244 246
307 308 309 309 310 311 311 311 310 308 305 299 292 287 285 287 292 295 295 295 296 295 292 289 284 279 274 269 270 274 278 280 282 283 283 280 277 272 268 265 263 263 264 264 262 260 261 261 262 262 261 263 268 271 271 270 270 268 263 260 260 260 257 253 249 244 240 237 235 235 236 237 239 242
308 309 309 311 313 313 312 311 309 307 304 299 293 287 285 286 289 291 292 295 299 299 296 291 285 281 278 274 272 276 283 290 292 287 280 275 274 274 271 267 264 263 263 262 258 256 256 256 256 256 257 260 263 266 267 268 269 268 265 260 258 258 260 261 256 250 243 238 236 236 237 238 239 241
311 312 313 314 315 315 313 312 312 311 309 305 297 289 284 284 285 288 293 300 305 305 301 292 286 283 281 278 278 281 288 291 287 280 273 271 272 274 274 271 267 265 264 261 257 253 253 254 254 254 255 256 258 259 261 263 266 267 267 264 257 254 257 262 262 256 249 243 239 239 239 241 242 244
315 315 317 317 317 317 317 316 316 316 315 312 305 295 287 283 284 287 294 300 303 304 303 296 291 289 288 284 285 289 291 289 286 284 280 275 271 269 270 271 268 265 263 261 258 255 253 253 253 253 253 252 253 254 255 258 261 262 264 264 260 254 252 256 260 259 254 249 245 243 242 242 243 243
319 320 320 321 321 320 319 318 317 316 317 315 309 301 292 286 284 285 288 293 296 300 303 304 305 308 306 298 294 295 295 291 290 291 289 283 276 270 269 270 269 266 263 261 260 259 257 255 254 252 250 249 250 250 250 252 255 257 259 261 262 259 254 253 257 258 253 248 246 245 245 244 243 243
324 325 325 324 322 320 321 322 320 318 318 315 309 304 298 290 284 283 285 287 290 295 300 303 308 311 309 303 299 299 300 297 295 295 293 288 283 279 275 273 270 268 264 261 260 261 260 258 255 252 248 245 244 246 247 248 251 254 256 257 260 261 258 255 252 248 245 246 245 243 243 244 244 244
329 332 333 333 330 329 331 334 332 328 323 319 314 310 304 294 286 286 289 288 289 293 299 303 306 306 302 299 298 299 299 299 301 301 295 287 282 280 278 276 274 273 271 266 262 261 260 257 255 253 249 244 241 241 244 247 249 250 252 255 257 259 259 255 249 246 249 254 253 248 246 245 244 244
335 340 343 344 344 343 341 340 340 338 333 327 323 320 311 299 289 288 293 295 294 295 298 302 304 304 302 301 301 301 300 298 299 301 299 292 287 283 280 277 277 278 277 271 265 264 262 256 252 252 251 247 244 242 242 244 245 245 247 251 255 257 259 256 249 249 255 260 258 254 251 249 248 248
334 337 342 347 351 351 348 343 340 337 333 329 325 322 314 303 295 293 295 300 303 303 302 302 302 301 301 300 300 300 300 299 298 298 297 296 294 290 285 281 280 281 280 272 265 266 267 259 249 246 245 244 244 243 241 243 245 244 245 249 252 254 257 256 250 249 254 260 261 259 256 253 250 249
335 336 339 344 349 350 350 349 344 338 334 331 327 323 318 309 304 301 300 300 301 299 299 299 299 297 296 295 295 296 297 297 296 294 292 291 288 285 282 280 280 283 283 276 268 269 268 259 247 240 236 234 235 235 235 236 239 242 244 246 249 251 253 254 251 249 252 259 262 260 258 256 253 252
347 349 349 350 350 348 346 347 345 340 336 333 329 326 321 314 309 304 300 297 294 291 291 293 294 294 294 294 297 299 299 294 290 288 287 287 285 280 276 274 274 277 280 279 276 275 268 255 243 237 233 231 230 232 234 233 233 237 241 244 247 250 250 251 250 249 252 257 256 253 254 258 259 258
356 358 357 357 358 356 354 352 350 348 345 341 336 331 326 323 319 312 304 298 293 290 290 292 294 295 296 298 304 310 311 304 296 290 287 287 287 284 281 277 273 271 271 272 273 273 268 255 241 234 234 235 233 233 237 238 236 238 241 244 247 247 245 247 248 247 248 251 250 248 250 254 256 257
360 0 359 358 357 358 357 356 354 353 350 345 340 335 329 324 323 320 314 307 301 296 294 293 294 297 297 298 302 307 309 309 305 296 289 287 286 286 286 285 280 275 271 267 265 266 266 259 244 232 230 234 234 233 235 238 239 240 241 243 245 243 240 241 243 241 239 240 242 245 245 247 252 257
359 358 355 353 351 350 350 351 350 346 340 336 333 330 323 318 318 317 314 310 306 302 299 297 296 299 303 303 301 299 300 305 307 302 295 290 287 285 286 285 284 281 276 270 266 263 262 259 250 238 231 231 232 233 234 236 240 243 244 243 241 237 234 235 237 237 237 237 240 246 248 249 250 250
357 355 351 347 344 342 342 342 340 334 329 326 323 319 315 311 309 308 307 306 304 304 304 301 298 299 302 303 303 300 299 302 307 306 302 298 293 290 288 286 283 280 276 270 266 261 256 253 251 247 241 236 235 238 240 239 240 244 246 244 239 235 234 235 235 235 237 237 237 238 242 247 248 246
353 352 350 347 344 341 339 338 337 335 333 331 329 326 323 317 312 308 304 300 297 296 298 299 297 296 296 297 300 301 298 298 302 304 303 301 296 292 291 289 286 284 280 273 266 259 254 251 251 251 249 242 237 239 243 241 237 238 241 240 237 232 226 222 220 224 229 228 223 217 217 224 233 242
351 349 346 345 344 343 342 342 341 338 336 334 334 335 334 331 327 324 319 313 305 299 294 291 291 292 293 293 295 295 292 293 296 298 299 298 292 287 287 288 288 288 286 281 274 264 256 254 253 250 245 236 229 232 240 237 230 228 228 223 217 212 204 201 215 229 230 224 220 220 218 218 221 230
351 348 345 343 340 341 343 342 339 337 336 335 335 334 334 335 338 339 337 334 330 324 315 305 299 299 298 296 292 288 284 285 289 292 294 295 289 281 279 282 287 287 285 285 284 275 261 254 249 243 239 233 225 225 232 229 219 216 213 202 191 189 194 207 225 231 220 211 210 208 207 212 223 233
348 347 346 344 342 343 343 340 338 339 339 336 333 333 336 340 341 339 336 334 333 332 328 322 315 310 305 300 296 292 287 285 286 287 288 289 286 280 275 276 281 283 282 283 285 278 262 249 240 232 229 226 218 217 225 224 212 203 197 187 177 179 190 204 215 206 192 191 197 198 202 214 231 237
347 346 346 346 349 351 348 343 342 341 338 334 333 336 338 338 334 331 329 328 326 323 320 315 311 306 300 297 295 294 291 289 289 287 285 282 277 272 270 272 275 277 279 284 286 275 253 235 225 217 214 212 206 205 214 215 202 191 187 181 178 181 184 186 203 205 190 179 184 201 209 216 221 219